Location: Skalnate Pleso
(49.1889°N, 20.2450°E)
Time: 04:42:53
(UTC+01:00)

Cosmos 1606 - Pass Details

Date: 19 November 2019
Orbit: 504 x 528 km, 82.5° (Epoch: 14 December)

Event Time Altitude Azimuth Distance (km) Brightness Sun altitude
Exits shadow 06:02:45 - 337° (NNW) 2,417 5.7 -8.5°
Reaches altitude 10° 06:04:36 10° 326° (NW) 1,737 4.9 -8.2°
Maximum altitude 06:07:43 25° 271° (W) 1,075 3.8 -7.8°
Drops below altitude 10° 06:10:50 10° 215° (SW) 1,734 5.2 -7.3°
Sets 06:13:13 0° 202° (SSW) 2,619 6.3 -6.9°
